FW5426 Weather Reports


time (UTC)temp
C
wind
direction
speed
KPH
gust
KPH
rain 1hr
cm
rain 24hr
cm
rain mn
cm
humidity
%
barometer
mb
20260506124829 13 44 3.2 8.0 0.00 0.00 0.00 42 1016.9
20260506124553 13 36 4.8 9.7 0.00 0.00 0.00 42 1016.8
20260506123829 13 36 4.8 9.7 0.00 0.00 0.00 42 1016.7
20260506123329 13 43 3.2 9.7 0.00 0.00 0.00 42 1016.5
20260506122829 13 58 3.2 6.4 0.00 0.00 0.00 42 1016.5
20260506122328 13 47 4.8 12.9 0.00 0.00 0.00 42 1016.4
20260506121829 13 51 6.4 12.9 0.00 0.00 0.00 42 1016.3
20260506121330 13 46 3.2 9.7 0.00 0.00 0.00 42 1016.2
20260506120830 13 340 3.2 11.3 0.00 0.00 0.00 41 1016.1
20260506120330 14 34 4.8 11.3 0.00 0.00 0.00 41 1016.1
20260506115830 14 34 6.4 17.7 0.00 0.00 0.00 40 1016.1
20260506115328 14 59 6.4 17.7 0.00 0.00 0.00 40 1016.0
20260506114829 13 74 3.2 12.9 0.00 0.00 0.00 42 1016.0
20260506114329 13 36 3.2 9.7 0.00 0.00 0.00 41 1016.0
20260506113830 14 343 3.2 9.7 0.00 0.00 0.00 41 1016.0
20260506113329 14 55 4.8 14.5 0.00 0.00 0.00 40 1016.0
20260506112829 14 50 4.8 14.5 0.00 0.00 0.00 39 1015.9
20260506112329 15 52 4.8 12.9 0.00 0.00 0.00 38 1015.9
20260506111829 15 64 4.8 12.9 0.00 0.00 0.00 37 1016.0
20260506111811 16 71 8.0 22.5 0.00 0.00 0.00 35 1015.9
20260506110829 16 5 9.7 22.5 0.00 0.00 0.00 34 1015.9
20260506110329 16 308 11.3 19.3 0.00 0.00 0.00 34 1015.8
20260506105830 16 342 9.7 19.3 0.00 0.00 0.00 33 1015.6
20260506105817 16 346 11.3 20.9 0.00 0.00 0.00 33 1015.5
20260506104829 16 5 12.9 20.9 0.00 0.00 0.00 33 1015.4
20260506104329 16 312 12.9 22.5 0.00 0.00 0.00 33 1015.3
20260506103829 16 318 14.5 25.7 0.00 0.00 0.00 33 1015.4
20260506103329 16 332 12.9 32.2 0.00 0.00 0.00 33 1015.3
20260506102829 16 323 12.9 32.2 0.00 0.00 0.00 32 1015.3
20260506102329 16 332 16.1 27.4 0.00 0.00 0.00 32 1015.3
20260506101829 17 324 16.1 27.4 0.00 0.00 0.00 32 1015.2
20260506101329 17 313 16.1 29.0 0.00 0.00 0.00 32 1015.2
20260506100829 17 323 16.1 29.0 0.00 0.00 0.00 32 1015.2
20260506100330 17 310 14.5 29.0 0.00 0.00 0.00 32 1015.1
20260506100311 17 297 16.1 33.8 0.00 0.00 0.00 32 1015.1
20260506095552 17 331 16.1 33.8 0.00 0.00 0.00 31 1015.2
20260506094830 17 321 16.1 32.2 0.00 0.00 0.00 32 1015.0
20260506094329 17 355 17.7 32.2 0.00 0.00 0.00 32 1015.0
20260506093829 17 350 19.3 38.6 0.00 0.00 0.00 31 1015.0
20260506093329 17 302 19.3 38.6 0.00 0.00 0.00 31 1015.0
20260506093058 17 315 16.1 29.0 0.00 0.00 0.00 31 1015.1
20260506092329 17 317 16.1 27.4 0.00 0.00 0.00 31 1014.9
20260506091829 17 321 16.1 27.4 0.00 0.00 0.00 31 1015.0
20260506091329 17 328 16.1 27.4 0.00 0.00 0.00 31 1014.9
20260506090829 17 317 17.7 33.8 0.00 0.00 0.00 31 1014.9
20260506090555 17 331 17.7 33.8 0.00 0.00 0.00 32 1014.9
20260506085829 17 313 14.5 35.4 0.00 0.00 0.00 32 1014.7
20260506085557 17 312 14.5 35.4 0.00 0.00 0.00 33 1014.7
20260506084830 17 336 12.9 24.1 0.00 0.00 0.00 32 1014.7
20260506084329 17 288 12.9 24.1 0.00 0.00 0.00 32 1014.9
20260506083829 17 316 12.9 27.4 0.00 0.00 0.00 32 1014.9
20260506083328 18 337 11.3 27.4 0.00 0.00 0.00 32 1014.9
20260506082829 18 337 12.9 25.7 0.00 0.00 0.00 31 1015.0
20260506082330 18 312 14.5 29.0 0.00 0.00 0.00 30 1014.9
20260506081829 18 315 14.5 29.0 0.00 0.00 0.00 30 1014.7
20260506081545 18 290 19.3 40.2 0.00 0.00 0.00 28 1014.9
20260506081532 18 317 17.7 40.2 0.00 0.00 0.00 29 1014.9
20260506080329 18 299 19.3 29.0 0.00 0.00 0.00 26 1014.7
20260506073328 20 281 20.9 38.6 0.00 0.00 0.00 23 1014.6
20260506072829 20 259 19.3 38.6 0.00 0.00 0.00 22 1014.4
20260506072554 20 241 19.3 41.8 0.00 0.00 0.00 23 1014.4
20260506071830 20 329 20.9 41.8 0.00 0.00 0.00 23 1014.5
20260506071329 20 286 19.3 37.0 0.00 0.00 0.00 23 1014.4
20260506070829 20 276 19.3 37.0 0.00 0.00 0.00 23 1014.5
20260506070329 20 275 17.7 30.6 0.00 0.00 0.00 23 1014.5
20260506070321 19 275 16.1 29.0 0.00 0.00 0.00 23 1014.5
20260506062330 20 279 17.7 29.0 0.00 0.00 0.00 23 1014.4
20260506062049 20 244 17.7 29.0 0.00 0.00 0.00 22 1014.3
20260506061329 20 257 17.7 33.8 0.00 0.00 0.00 22 1014.4
20260506060830 21 244 19.3 33.8 0.00 0.00 0.00 22 1014.4
20260506060553 21 271 17.7 32.2 0.00 0.00 0.00 22 1014.3
20260506051329 21 267 19.3 33.8 0.00 0.00 0.00 21 1014.0
20260506050829 21 275 20.9 33.8 0.00 0.00 0.00 21 1014.0
20260506050556 21 265 19.3 40.2 0.00 0.00 0.00 20 1013.8
20260506044829 21 266 22.5 38.6 0.00 0.00 0.00 19 1013.6
20260506044329 21 244 25.7 40.2 0.00 0.00 0.00 18 1013.5
20260506043827 21 275 22.5 40.2 0.00 0.00 0.00 19 1013.6
20260506043321 21 254 19.3 37.0 0.00 0.00 0.00 19 1013.4
20260506042815 21 284 20.9 41.8 0.00 0.00 0.00 18 1013.3
20260506042309 21 292 24.1 45.1 0.00 0.00 0.00 18 1013.3
20260506042028 22 306 22.5 45.1 0.00 0.00 0.00 17 1013.3
20260506041303 22 266 20.9 37.0 0.00 0.00 0.00 17 1013.3
20260506040804 22 249 22.5 40.2 0.00 0.00 0.00 16 1013.3
20260506040303 22 272 27.4 41.8 0.00 0.00 0.00 16 1013.1
20260506040027 22 256 25.7 43.5 0.00 0.00 0.00 15 1013.1
20260506035305 22 277 20.9 43.5 0.00 0.00 0.00 16 1013.1
20260506034803 22 242 20.9 37.0 0.00 0.00 0.00 16 1012.9
20260506034304 22 246 24.1 38.6 0.00 0.00 0.00 16 1012.9
20260506033803 22 263 24.1 38.6 0.00 0.00 0.00 17 1012.8
20260506033303 22 276 20.9 37.0 0.00 0.00 0.00 17 1012.7
20260506033028 22 258 17.7 35.4 0.00 0.00 0.00 18 1012.6
20260506032526 22 248 16.1 35.4 0.00 0.00 0.00 19 1012.6
20260506031803 22 254 17.7 35.4 0.00 0.00 0.00 19 1012.6
20260506031303 22 297 19.3 35.4 0.00 0.00 0.00 19 1012.6
20260506030803 22 257 19.3 48.3 0.00 0.00 0.00 19 1012.4
20260506030523 22 255 20.9 48.3 0.00 0.00 0.00 18 1012.5
20260506025801 23 277 19.3 43.5 0.00 0.00 0.00 18 1012.4
20260506025522 23 262 19.3 43.5 0.00 0.00 0.00 19 1012.3
20260506024800 23 265 17.7 41.8 0.00 0.00 0.00 19 1012.3
20260506024301 23 224 17.7 29.0 0.00 0.00 0.00 20 1012.3
20260506023801 23 262 14.5 29.0 0.00 0.00 0.00 20 1011.9
20260506023531 23 190 12.9 27.4 0.00 0.00 0.00 21 1011.9
20260506022801 23 261 17.7 33.8 0.00 0.00 0.00 21 1011.9
20260506022305 23 254 17.7 41.8 0.00 0.00 0.00 21 1011.8
20260506021801 23 252 14.5 41.8 0.00 0.00 0.00 20 1011.8
20260506021301 23 276 16.1 38.6 0.00 0.00 0.00 20 1011.8
20260506021028 23 234 22.5 40.2 0.00 0.00 0.00 20 1011.7
20260506020302 23 288 20.9 40.2 0.00 0.00 0.00 19 1011.7
20260506015801 23 229 17.7 32.2 0.00 0.00 0.00 19 1011.7
20260506015520 23 244 17.7 30.6 0.00 0.00 0.00 19 1011.7
20260506014801 23 264 17.7 49.9 0.00 0.00 0.00 19 1011.7
20260506014301 23 256 19.3 49.9 0.00 0.00 0.00 19 1011.5
20260506013801 23 242 17.7 33.8 0.00 0.00 0.00 19 1011.5
20260506013300 23 238 16.1 30.6 0.00 0.00 0.00 19 1011.4
20260506012801 23 248 20.9 43.5 0.00 0.00 0.00 19 1011.4
20260506012307 23 237 22.5 43.5 0.00 0.00 0.00 19 1011.4
20260506012022 23 252 19.3 38.6 0.00 0.00 0.00 19 1011.4
20260506011301 24 238 19.3 33.8 0.00 0.00 0.00 20 1011.4
20260506010801 24 292 20.9 33.8 0.00 0.00 0.00 21 1011.3
20260506010521 24 255 19.3 33.8 0.00 0.00 0.00 21 1011.4
20260506005801 24 217 20.9 41.8 0.00 0.00 0.00 21 1011.1
20260506005301 24 236 24.1 46.7 0.00 0.00 0.00 21 1011.4
20260506004801 24 265 20.9 46.7 0.00 0.00 0.00 22 1011.4
20260506004301 24 196 19.3 41.8 0.00 0.00 0.00 21 1011.3
20260506003801 24 215 19.3 38.6 0.00 0.00 0.00 22 1011.4
20260506003301 24 264 20.9 40.2 0.00 0.00 0.00 22 1011.3
20260506002800 24 246 19.3 40.2 0.00 0.00 0.00 23 1011.3
20260506002300 24 272 19.3 40.2 0.00 0.00 0.00 24 1011.4
20260506001801 24 275 20.9 40.2 0.00 0.00 0.00 24 1011.5
20260506001301 24 250 22.5 41.8 0.00 0.00 0.00 25 1011.4
20260506000801 24 273 17.7 41.8 0.00 0.00 0.00 25 1011.4
20260506000302 24 275 14.5 30.6 0.00 0.00 0.00 25 1011.4
20260505235801 24 267 12.9 27.4 0.00 0.00 0.00 25 1011.4
20260505235304 24 238 9.7 27.4 0.00 0.00 0.00 26 1011.4
20260505234801 24 296 11.3 27.4 0.00 0.00 0.00 26 1011.4
20260505234300 24 252 14.5 32.2 0.00 0.00 0.00 26 1011.3
20260505233801 24 311 14.5 32.2 0.00 0.00 0.00 26 1011.4
20260505233301 24 241 14.5 27.4 0.00 0.00 0.00 26 1011.3
20260505232800 23 279 12.9 27.4 0.00 0.00 0.00 28 1011.3
20260505232301 23 313 14.5 30.6 0.00 0.00 0.00 28 1011.4
20260505231801 24 299 16.1 30.6 0.00 0.00 0.00 28 1011.3
20260505231301 23 219 17.7 38.6 0.00 0.00 0.00 28 1011.5
20260505230801 24 271 16.1 38.6 0.00 0.00 0.00 28 1011.5
20260505230301 24 271 16.1 33.8 0.00 0.00 0.00 28 1011.5
20260505225759 24 294 16.1 33.8 0.00 0.00 0.00 29 1011.6
20260505225259 24 262 12.9 29.0 0.00 0.00 0.00 29 1011.7
20260505224758 23 272 14.5 32.2 0.00 0.00 0.00 30 1011.8
20260505224259 23 276 19.3 33.8 0.00 0.00 0.00 30 1012.2
20260505223755 23 242 20.9 41.8 0.00 0.00 0.00 30 1012.0
20260505223253 23 298 20.9 41.8 0.00 0.00 0.00 30 1012.2
20260505222753 23 291 20.9 38.6 0.00 0.00 0.00 30 1012.0
20260505222253 23 270 19.3 37.0 0.00 0.00 0.00 30 1012.3
20260505221752 23 290 17.7 35.4 0.00 0.00 0.00 30 1012.5
20260505221520 23 309 17.7 33.8 0.00 0.00 0.00 31 1012.4
20260505221017 23 320 20.9 38.6 0.00 0.00 0.00 32 1012.4
20260505220252 23 290 20.9 38.6 0.00 0.00 0.00 31 1012.5
20260505220020 23 288 16.1 35.4 0.00 0.00 0.00 31 1012.5
20260505215243 23 287 12.9 24.1 0.00 0.00 0.00 31 1012.5
20260505214736 24 315 17.7 40.2 0.00 0.00 0.00 30 1012.5
20260505214234 24 244 24.1 43.5 0.00 0.00 0.00 29 1012.7
20260505213735 24 226 22.5 43.5 0.00 0.00 0.00 29 1012.9
20260505213234 24 272 19.3 37.0 0.00 0.00 0.00 31 1013.2
20260505212958 24 271 17.7 37.0 0.00 0.00 0.00 30 1013.1
20260505212234 24 254 14.5 27.4 0.00 0.00 0.00 31 1013.2
20260505211735 24 279 12.9 27.4 0.00 0.00 0.00 31 1013.3
20260505211459 23 241 11.3 24.1 0.00 0.00 0.00 32 1013.4
20260505210735 23 298 11.3 24.1 0.00 0.00 0.00 33 1013.5
20260505210232 23 306 12.9 30.6 0.00 0.00 0.00 33 1013.5
20260505205731 23 242 16.1 30.6 0.00 0.00 0.00 33 1013.5
20260505205230 23 342 17.7 29.0 0.00 0.00 0.00 33 1013.5
20260505204731 23 316 16.1 29.0 0.00 0.00 0.00 33 1013.6
20260505204230 23 319 12.9 22.5 0.00 0.00 0.00 33 1013.7
20260505203952 23 217 12.9 30.6 0.00 0.00 0.00 34 1013.8
20260505203231 23 250 11.3 30.6 0.00 0.00 0.00 33 1013.8
20260505202730 23 343 9.7 22.5 0.00 0.00 0.00 34 1013.7
20260505202444 23 287 14.5 29.0 0.00 0.00 0.00 33 1014.1
20260505201717 23 296 16.1 29.0 0.00 0.00 0.00 34 1014.2
20260505201432 22 323 12.9 27.4 0.00 0.00 0.00 34 1014.1
20260505200705 23 302 12.9 27.4 0.00 0.00 0.00 34 1014.1
20260505200204 23 232 14.5 25.7 0.00 0.00 0.00 33 1014.2
20260505195701 23 284 12.9 29.0 0.00 0.00 0.00 33 1014.3
20260505195202 23 313 14.5 38.6 0.00 0.00 0.00 33 1014.4
20260505194702 22 307 16.1 38.6 0.00 0.00 0.00 33 1014.4
20260505194427 22 308 17.7 32.2 0.00 0.00 0.00 33 1014.6
20260505193702 22 283 16.1 32.2 0.00 0.00 0.00 33 1014.5
20260505193202 23 284 16.1 32.2 0.00 0.00 0.00 31 1014.5
20260505192702 23 255 16.1 33.8 0.00 0.00 0.00 32 1014.5
20260505192202 23 247 20.9 43.5 0.00 0.00 0.00 31 1014.5
20260505191701 23 222 22.5 43.5 0.00 0.00 0.00 31 1014.5
20260505191202 23 240 20.9 41.8 0.00 0.00 0.00 31 1014.5
20260505190701 23 286 20.9 41.8 0.00 0.00 0.00 31 1014.6
20260505190201 22 285 19.3 41.8 0.00 0.00 0.00 31 1014.5
20260505185702 22 202 16.1 40.2 0.00 0.00 0.00 31 1014.5
20260505185202 22 254 17.7 33.8 0.00 0.00 0.00 30 1014.4
20260505184701 22 272 17.7 33.8 0.00 0.00 0.00 30 1014.3
20260505184201 22 279 16.1 29.0 0.00 0.00 0.00 30 1014.5
20260505184139 23 287 16.1 29.0 0.00 0.00 0.00 29 1014.6
20260505183202 23 267 16.1 38.6 0.00 0.00 0.00 29 1014.5
20260505182703 23 259 14.5 38.6 0.00 0.00 0.00 29 1014.5
20260505182201 22 224 19.3 37.0 0.00 0.00 0.00 29 1014.5
20260505181701 22 251 20.9 37.0 0.00 0.00 0.00 30 1014.7
20260505181201 23 255 16.1 32.2 0.00 0.00 0.00 30 1014.5
20260505180701 23 236 14.5 32.2 0.00 0.00 0.00 30 1014.4
20260505180201 23 257 17.7 40.2 0.00 0.00 0.00 31 1014.4
20260505175701 22 225 19.3 40.2 0.00 0.00 0.00 31 1014.4
20260505175201 22 246 16.1 30.6 0.00 0.00 0.00 31 1014.7
20260505174701 22 299 14.5 32.2 0.00 0.00 0.00 32 1014.6
20260505174201 22 252 12.9 32.2 0.00 0.00 0.00 32 1015.0
20260505174143 22 290 9.7 32.2 0.00 0.00 0.00 33 1014.9
20260505173421 22 280 12.9 33.8 0.00 0.00 0.00 34 1015.0
20260505172701 22 259 14.5 33.8 0.00 0.00 0.00 34 1015.0
20260505172201 22 284 11.3 24.1 0.00 0.00 0.00 35 1014.9
20260505171701 21 255 9.7 22.5 0.00 0.00 0.00 36 1014.9
20260505171200 21 236 9.7 22.5 0.00 0.00 0.00 36 1015.0
20260505170920 21 273 9.7 22.5 0.00 0.00 0.00 37 1015.0
20260505170156 21 269 9.7 22.5 0.00 0.00 0.00 36 1015.0
20260505170143 20 253 9.7 14.5 0.00 0.00 0.00 37 1014.9
20260505165417 20 199 9.7 22.5 0.00 0.00 0.00 37 1014.9
20260505164920 20 225 9.7 22.5 0.00 0.00 0.00 37 1014.7
20260505164417 20 228 11.3 27.4 0.00 0.00 0.00 37 1014.7
20260505163652 20 222 9.7 27.4 0.00 0.00 0.00 36 1015.0
20260505163152 20 258 4.8 16.1 0.00 0.00 0.00 37 1014.9
20260505162652 20 261 3.2 9.7 0.00 0.00 0.00 37 1014.9
20260505162152 20 102 4.8 14.5 0.00 0.00 0.00 39 1014.7
20260505161652 20 108 8.0 14.5 0.00 0.00 0.00 39 1014.9
20260505161152 19 117 4.8 12.9 0.00 0.00 0.00 40 1015.0
20260505160652 19 134 3.2 11.3 0.00 0.00 0.00 41 1015.0
20260505160151 19 122 6.4 17.7 0.00 0.00 0.00 42 1014.9
20260505153144 18 90 3.2 11.3 0.00 0.00 0.00 43 1014.7
20260505152644 18 42 3.2 8.0 0.00 0.00 0.00 44 1014.6
20260505152142 17 191 1.6 9.7 0.00 0.00 0.00 45 1014.7
20260505151907 17 108 3.2 9.7 0.00 0.00 0.00 46 1014.7
20260505151143 17 50 3.2 11.3 0.00 0.00 0.00 46 1014.9
20260505150642 17 20 4.8 11.3 0.00 0.00 0.00 47 1014.7
20260505150137 17 82 4.8 11.3 0.00 0.00 0.00 47 1014.7
20260505140638 18 42 8.0 19.3 0.00 0.00 0.00 43 1015.1
20260505140400 18 30 9.7 29.0 0.00 0.00 0.00 41 1015.2
20260505130130 17 41 4.8 12.9 0.00 0.00 0.00 43 1014.6